Starlink 30455

operational
NORAD ID: 57942 Int'l Des: 2023-148 Owner: SPXS Country: US Constellation: starlink
LEOCIRCULAR

Über Starlink 30455

Beschreibung wird geladen...

Live-Position

3D-Globus wird geladen...

Nächste Überflüge

Höhenverlauf

Altitude vs Time

uPlot chart will show altitude changes over time

Zweizeiliger Elementsatz

1 57942U 23148H 25258.03179075 -.00000274 00000-0 28640-5 0 9998
2 57942 53.1596 120.4003 0001267 77.8237 282.2905 15.30194708111524
Epoch: 15. Sept. 2025 • Age: 21 hours

Aktueller Status

Höhe 478.5 km
Geschwindigkeit 7.63 km/s
Subsatellitenpunkt -10.78°S, 20.4°W
Startdatum 25. Sept. 2023
Alter 1.9 years
Typ internet

Technische Details

Klassifizierung Payload
Masse 730.00 kg
Trockenmasse 700.00 kg
Gesamtmasse 730.00 kg
Länge 0.30 m
Durchmesser 4.10 m
Spannweite 29.00 m
Form Box + pan
Hersteller SPXS
Bus-Typ Starlink V2M
Phasenstatus In Orbit
Besitzer/Staat SPXS/US

Große Konstellationen

Loading constellations...